DMSP 5D-2 F13 DEB, 40405

Orbit data source: Space-Track

DMSP 5D-2 F13 DEB, 40405 is space debris in SSO originally from a launch on Fri, 24 Mar 1995 UTC launched from the Air Force Western Test Range (AFWTR). Debris objects in space refer to the collection of defunct objects orbiting the Earth. Examples of debris include non-operational satellites, rocket bodies, and fragments generated from explosions, collisions, or faulty payload assembly.

Loading next visibility...
Identifier
40405, 1995-015S
Orbit
SSO
Country
Flag of USUS
Related business
Manufacturer
Unknown
Mission
Spacecraft
Bus & Motor
Unknown
Mass
Unknown
Launch date (UTC)
1995-03-24 (31 years ago)
Launch vehicle
Unknown
Launch site
Air Force Western Test Range (AFWTR)
Object type
Payload
Rocket body
Debris
Shape & HBR
Unknown shape, 0.1 m
Radar Cross Section
Small (<0.1 m²)

Expand to show TLE details & history
Last TLE update: 13 hours ago

TLE from 13 hours ago
0 DMSP 5D-2 F13 DEB
1 40405U 95015S   25288.99503862  .00002586  00000-0  11716-2 0  9999
2 40405  98.8886 306.8827 0122280 282.1171  76.6326 14.18953798548320
Epoch: 2025-10-15T23:52Z
TLE epoch observation values (Epoch: 2025-10-15T23:52:51.336Z)
Latitude
-0.00012°
Longitude
-76.0923°
Altitude
812.447 km
Speed
7.457 km/s
True Right ascension
20h 27m 31s
True Declination
0° 00' 00"
Sunlit
Object was in daylight at epoch
Visualization orbit readout
Latitude
Unknown
Longitude
Unknown
Altitude
Unknown
Speed
Unknown
Apparent Right ascension
Unknown
Apparent Declination
Unknown
Sunlit
N/A
Visualization observer readout
Local Sidereal Time
07:49:02
Azimuth
Unknown
Elevation
Unknown
Doppler factor
Unknown
Orbital elements
Apogee altitude
914.154 km
Perigee altitude
737.968 km
Semi-major axis
7,204.198 km
Eccentricity
0.01223
Inclination
98.8886°
RAAN
306.8827°
Arg. of periapsis
282.1171°
True anomaly
78.00057°
Mean anomaly
76.6326°
Eccentric anomaly
77.31612°
Mean motion
3.54948 °/min
Orbital period
101.42 mins
BSTAR
0.0011716

Documentation

Showing up to 5 results
|